Location: Kitchener
(43.4500°N, 80.5000°W)
Time: 08:23:09
(UTC-04:00)

Cosmos 1939 Rocket - Visible Passes

Search period start: 19 April 2014 00:00
Search period end: 29 April 2014 00:00
Orbit: 545 x 593 km, 97.7° (Epoch: 18 April)

Date Brightness Start Highest point End Pass type
(mag) Time Alt. Az. Time Alt. Az. Time Alt. Az.
19 Apr 2.9 22:05:29 38° S 22:07:00 82° WSW 22:11:09 10° NNW visible
20 Apr 2.9 22:06:58 36° S 22:08:33 78° WSW 22:12:43 10° NNW visible
21 Apr 3.0 22:08:27 35° S 22:10:06 75° WSW 22:14:16 10° NNW visible
22 Apr 3.0 22:09:55 33° S 22:11:39 72° WSW 22:15:49 10° NNW visible
23 Apr 3.1 22:11:23 32° S 22:13:12 69° WSW 22:17:21 10° NNW visible
24 Apr 3.2 22:12:51 30° S 22:14:44 66° W 22:18:54 10° NNW visible
25 Apr 3.2 22:14:19 29° S 22:16:16 64° W 22:20:25 10° NNW visible
26 Apr 3.3 22:15:46 28° S 22:17:48 61° W 22:21:56 10° NNW visible
27 Apr 3.4 22:17:13 27° S 22:19:19 59° W 22:23:27 10° NNW visible
28 Apr 3.5 22:18:40 26° S 22:20:50 56° W 22:24:58 10° NNW visible
